QPF
0.00 0.03 0.06 0.02 0.00 0.00 0.00 0.00 0.00 0.00 0.00 0.00 0.00 0.00 0.00 0.00 0.00 0.00 0.00 0.00 0.00 0.00 0.00 0.00 0.00 0.00 0.00 0.00 0.00 0.00 0.00 0.00 0.00 0.00 0.00 0.00 0.00 0.00 0.01 0.03 0.00 0.00 0.03
0.00 0.02 0.04 0.02 0.00 0.00 0.00 0.00 0.00 0.00 0.00 0.00 0.00 0.00 0.00 0.00 0.00 0.00 0.00 0.00 0.00 0.00 0.00 0.00 0.00 0.00 0.00 0.00 0.00 0.00 0.00 0.00 0.00 0.00 0.00 0.00 0.01 0.01 0.07 0.06 0.00 0.01 0.01
0.00 0.00 0.01 0.02 0.01 0.00 0.00 0.00 0.00 0.00 0.00 0.00 0.00 0.00 0.00 0.00 0.00 0.00 0.00 0.00 0.00 0.00 0.00 0.00 0.00 0.00 0.00 0.00 0.00 0.00 0.00 0.01 0.03 0.00 0.00 0.00 0.01 0.07 0.11 0.05 0.02 0.03 0.01
0.00 0.00 0.00 0.01 0.00 0.00 0.01 0.00 0.00 0.00 0.00 0.00 0.00 0.00 0.00 0.00 0.00 0.00 0.00 0.00 0.00 0.00 0.00 0.00 0.00 0.00 0.00 0.00 0.00 0.00 0.00 0.01 0.00 0.00 0.00 0.00 0.00 0.09 0.01 0.00 0.02 0.01 0.00
0.00 0.00 0.00 0.00 0.00 0.00 0.00 0.00 0.00 0.00 0.00 0.00 0.00 0.00 0.00 0.00 0.00 0.00 0.00 0.00 0.00 0.00 0.00 0.00 0.00 0.00 0.00 0.00 0.00 0.00 0.01 0.00 0.00 0.00 0.00 0.00 0.00 0.00 0.00 0.01 0.02 0.01 0.00
0.00 0.00 0.00 0.00 0.00 0.00 0.00 0.00 0.00 0.00 0.00 0.00 0.00 0.00 0.00 0.00 0.00 0.00 0.00 0.00 0.00 0.00 0.00 0.00 0.00 0.00 0.00 0.01 0.01 0.02 0.04 0.03 0.01 0.00 0.00 0.00 0.00 0.00 0.01 0.00 0.00 0.01 0.03
0.00 0.00 0.00 0.00 0.00 0.01 0.00 0.00 0.00 0.00 0.00 0.00 0.00 0.00 0.00 0.00 0.00 0.00 0.00 0.00 0.00 0.00 0.00 0.00 0.00 0.00 0.01 0.05 0.03 0.05 0.08 0.05 0.00 0.00 0.00 0.00 0.01 0.00 0.00 0.00 0.00 0.01 0.01
0.00 0.00 0.00 0.00 0.00 0.00 0.00 0.00 0.00 0.00 0.00 0.01 0.01 0.00 0.00 0.00 0.00 0.00 0.00 0.00 0.00 0.00 0.00 0.00 0.00 0.00 0.00 0.00 0.03 0.05 0.07 0.03 0.00 0.00 0.00 0.00 0.00 0.00 0.00 0.00 0.00 0.01 0.01
0.00 0.00 0.00 0.00 0.00 0.00 0.00 0.00 0.00 0.00 0.00 0.01 0.00 0.00 0.00 0.00 0.00 0.00 0.00 0.00 0.00 0.00 0.00 0.00 0.00 0.00 0.00 0.00 0.00 0.01 0.05 0.00 0.00 0.00 0.00 0.00 0.00 0.00 0.00 0.00 0.00 0.01 0.02
0.00 0.00 0.00 0.00 0.00 0.00 0.00 0.00 0.00 0.00 0.00 0.00 0.00 0.00 0.00 0.00 0.00 0.00 0.00 0.00 0.00 0.00 0.00 0.00 0.00 0.00 0.00 0.00 0.00 0.00 0.08 0.07 0.01 0.01 0.00 0.00 0.00 0.00 0.00 0.00 0.00 0.00 0.00
0.00 0.00 0.00 0.00 0.00 0.00 0.00 0.00 0.00 0.00 0.00 0.00 0.00 0.00 0.00 0.00 0.00 0.00 0.00 0.00 0.00 0.00 0.00 0.00 0.00 0.00 0.00 0.01 0.00 0.01 0.03 0.09 0.09 0.00 0.00 0.00 0.00 0.00 0.00 0.00 0.00 0.00 0.00
0.00 0.00 0.00 0.00 0.00 0.00 0.00 0.00 0.00 0.00 0.00 0.00 0.00 0.00 0.00 0.00 0.00 0.00 0.00 0.00 0.00 0.00 0.00 0.00 0.00 0.01 0.00 0.00 0.00 0.01 0.02 0.04 0.08 0.00 0.00 0.01 0.00 0.00 0.00 0.00 0.00 0.01 0.01
0.00 0.00 0.00 0.00 0.00 0.00 0.00 0.00 0.00 0.00 0.00 0.00 0.00 0.00 0.00 0.00 0.00 0.00 0.00 0.00 0.00 0.00 0.00 0.00 0.00 0.00 0.00 0.00 0.00 0.00 0.00 0.01 0.03 0.00 0.00 0.00 0.00 0.00 0.00 0.00 0.00 0.00 0.00
0.00 0.00 0.00 0.00 0.00 0.00 0.00 0.00 0.00 0.00 0.00 0.00 0.00 0.00 0.00 0.00 0.00 0.00 0.00 0.00 0.00 0.00 0.00 0.00 0.00 0.00 0.00 0.00 0.00 0.00 0.00 0.00 0.00 0.00 0.00 0.00 0.01 0.00 0.00 0.00 0.00 0.00 0.00
0.00 0.00 0.00 0.00 0.00 0.00 0.00 0.00 0.00 0.00 0.00 0.00 0.00 0.00 0.00 0.00 0.00 0.00 0.01 0.00 0.01 0.00 0.00 0.00 0.00 0.00 0.00 0.00 0.00 0.00 0.00 0.00 0.00 0.00 0.00 0.00 0.00 0.00 0.00 0.00 0.00 0.00 0.00
0.00 0.00 0.00 0.00 0.00 0.00 0.00 0.00 0.00 0.00 0.00 0.00 0.00 0.00 0.00 0.00 0.00 0.00 0.01 0.00 0.01 0.00 0.00 0.01 0.00 0.00 0.00 0.00 0.00 0.00 0.00 0.00 0.00 0.00 0.00 0.00 0.00 0.00 0.00 0.00 0.00 0.00 0.00
0.00 0.00 0.00 0.00 0.00 0.00 0.00 0.00 0.00 0.00 0.00 0.00 0.00 0.00 0.00 0.00 0.01 0.02 0.00 0.01 0.02 0.02 0.00 0.02 0.00 0.00 0.00 0.00 0.00 0.00 0.00 0.00 0.00 0.00 0.00 0.00 0.00 0.00 0.00 0.00 0.01 0.00 0.00
0.00 0.00 0.00 0.00 0.00 0.00 0.00 0.00 0.00 0.00 0.00 0.00 0.00 0.00 0.00 0.00 0.00 0.00 0.00 0.00 0.01 0.04 0.02 0.04 0.00 0.00 0.00 0.00 0.00 0.00 0.00 0.00 0.00 0.00 0.00 0.00 0.00 0.00 0.00 0.00 0.02 0.02 0.03
0.00 0.00 0.00 0.00 0.00 0.00 0.00 0.00 0.00 0.00 0.00 0.00 0.00 0.00 0.00 0.00 0.00 0.00 0.00 0.00 0.00 0.00 0.01 0.00 0.01 0.01 0.00 0.00 0.00 0.00 0.00 0.00 0.00 0.00 0.00 0.00 0.00 0.00 0.00 0.01 0.02 0.06 0.07
0.00 0.00 0.00 0.00 0.00 0.00 0.00 0.00 0.00 0.00 0.00 0.00 0.00 0.00 0.00 0.00 0.00 0.00 0.00 0.01 0.00 0.00 0.00 0.00 0.00 0.00 0.00 0.00 0.00 0.00 0.00 0.00 0.00 0.00 0.00 0.00 0.00 0.00 0.00 0.00 0.00 0.01 0.01
0.00 0.00 0.00 0.00 0.00 0.00 0.00 0.00 0.00 0.00 0.00 0.00 0.00 0.00 0.00 0.00 0.00 0.00 0.00 0.04 0.01 0.01 0.01 0.01 0.00 0.00 0.00 0.00 0.00 0.00 0.00 0.00 0.00 0.00 0.00 0.00 0.00 0.00 0.00 0.00 0.00 0.00 0.00
0.00 0.00 0.00 0.00 0.00 0.00 0.00 0.00 0.00 0.00 0.00 0.00 0.00 0.00 0.00 0.00 0.00 0.00 0.00 0.01 0.00 0.00 0.03 0.00 0.00 0.00 0.00 0.00 0.00 0.00 0.00 0.00 0.00 0.00 0.00 0.00 0.00 0.00 0.00 0.00 0.00 0.00 0.00
0.00 0.00 0.00 0.00 0.00 0.00 0.00 0.00 0.00 0.00 0.00 0.00 0.00 0.00 0.00 0.00 0.00 0.00 0.00 0.00 0.00 0.00 0.00 0.00 0.00 0.00 0.00 0.00 0.00 0.00 0.00 0.00 0.00 0.00 0.00 0.00 0.00 0.00 0.00 0.00 0.00 0.00 0.00
0.00 0.00 0.00 0.00 0.00 0.00 0.00 0.00 0.00 0.00 0.00 0.00 0.00 0.00 0.00 0.00 0.00 0.00 0.00 0.00 0.00 0.01 0.00 0.00 0.00 0.00 0.00 0.00 0.00 0.00 0.00 0.00 0.00 0.00 0.00 0.00 0.00 0.00 0.00 0.00 0.00 0.00 0.00
0.00 0.00 0.00 0.00 0.00 0.00 0.00 0.00 0.00 0.00 0.00 0.00 0.00 0.00 0.00 0.00 0.00 0.00 0.00 0.00 0.00 0.00 0.00 0.00 0.00 0.00 0.00 0.00 0.00 0.00 0.00 0.00 0.00 0.00 0.00 0.00 0.00 0.00 0.00 0.00 0.00 0.00 0.00
0.00 0.00 0.00 0.00 0.00 0.00 0.00 0.00 0.00 0.00 0.00 0.00 0.00 0.00 0.00 0.00 0.00 0.00 0.00 0.00 0.00 0.00 0.00 0.00 0.00 0.00 0.00 0.00 0.00 0.00 0.00 0.00 0.00 0.00 0.00 0.00 0.00 0.00 0.00 0.00 0.00 0.00 0.00
MSLP
1015.54 1015.36 1015.28 1015.26 1015.42 1015.65 1015.72 1015.94 1016.12 1016.10 1016.23 1016.39 1016.51 1016.55 1016.67 1016.73 1016.87 1016.98 1017.16 1017.26 1017.30 1017.34 1017.37 1017.38 1017.46 1017.55 1017.62 1017.69 1017.69 1017.72 1017.80 1017.89 1018.00 1018.11 1018.14 1018.13 1018.04 1018.04 1018.15 1018.23 1018.43 1018.57 1018.69
1014.96 1015.39 1015.39 1015.37 1015.57 1015.80 1015.95 1016.18 1016.31 1016.38 1016.53 1016.65 1016.65 1016.80 1016.88 1017.01 1017.09 1017.16 1017.33 1017.42 1017.44 1017.56 1017.61 1017.61 1017.65 1017.67 1017.71 1017.82 1017.91 1017.95 1018.05 1018.14 1018.20 1018.31 1018.30 1018.30 1018.22 1018.33 1018.56 1018.62 1018.68 1018.81 1018.89
1015.13 1015.33 1015.45 1015.52 1015.76 1015.95 1016.07 1016.39 1016.41 1016.60 1016.75 1016.84 1016.95 1017.03 1017.11 1017.18 1017.21 1017.32 1017.47 1017.60 1017.73 1017.83 1017.83 1017.79 1017.82 1017.94 1017.99 1018.04 1018.08 1018.15 1018.19 1018.32 1018.41 1018.63 1018.73 1018.71 1018.76 1018.78 1018.89 1018.92 1019.05 1019.07 1019.17
1015.00 1015.35 1015.60 1015.72 1015.88 1016.04 1016.27 1016.52 1016.59 1016.85 1016.97 1017.07 1017.20 1017.28 1017.31 1017.37 1017.44 1017.59 1017.76 1017.94 1018.07 1018.04 1018.00 1017.99 1018.04 1018.15 1018.30 1018.31 1018.33 1018.37 1018.38 1018.47 1018.61 1018.71 1019.00 1018.96 1018.92 1019.07 1019.15 1019.28 1019.30 1019.38 1019.55
1015.17 1015.50 1015.65 1015.88 1016.02 1016.18 1016.45 1016.64 1016.78 1017.04 1017.23 1017.30 1017.27 1017.31 1017.43 1017.50 1017.66 1017.82 1017.93 1018.11 1018.18 1018.18 1018.24 1018.24 1018.26 1018.36 1018.43 1018.40 1018.53 1018.49 1018.48 1018.52 1018.50 1018.85 1019.21 1019.27 1019.30 1019.37 1019.45 1019.54 1019.57 1019.71 1019.92
1015.22 1015.67 1015.82 1016.01 1016.15 1016.33 1016.65 1016.80 1016.95 1017.23 1017.40 1017.51 1017.51 1017.58 1017.68 1017.69 1017.77 1017.92 1018.01 1018.10 1018.14 1018.22 1018.34 1018.44 1018.41 1018.47 1018.58 1018.53 1018.62 1018.57 1018.55 1018.61 1018.79 1019.11 1019.38 1019.41 1019.46 1019.49 1019.69 1019.81 1019.81 1020.09 1020.24
1015.53 1015.71 1015.94 1016.16 1016.32 1016.55 1016.85 1017.05 1017.14 1017.39 1017.56 1017.68 1017.73 1017.75 1017.76 1017.82 1017.94 1018.04 1018.14 1018.25 1018.28 1018.27 1018.36 1018.49 1018.50 1018.59 1018.76 1018.79 1018.72 1018.88 1018.74 1018.92 1019.26 1019.52 1019.68 1019.67 1019.65 1019.71 1019.86 1020.00 1020.11 1020.33 1020.47
1015.60 1015.87 1016.05 1016.32 1016.62 1016.78 1017.05 1017.22 1017.38 1017.52 1017.67 1017.78 1017.86 1017.88 1017.87 1017.95 1018.06 1018.20 1018.32 1018.42 1018.37 1018.35 1018.49 1018.60 1018.62 1018.71 1018.81 1019.02 1019.09 1018.98 1018.78 1018.99 1019.43 1019.72 1019.84 1019.88 1019.83 1019.82 1020.01 1020.14 1020.36 1020.52 1020.60
1015.77 1016.10 1016.27 1016.51 1016.81 1016.97 1017.23 1017.37 1017.50 1017.57 1017.66 1017.76 1017.88 1017.93 1017.94 1018.06 1018.23 1018.32 1018.43 1018.51 1018.47 1018.53 1018.69 1018.72 1018.69 1018.75 1018.82 1019.06 1019.10 1019.28 1019.16 1019.23 1019.56 1019.84 1019.90 1020.01 1019.96 1020.03 1020.20 1020.36 1020.48 1020.64 1020.77
1015.98 1016.26 1016.46 1016.73 1016.99 1017.17 1017.39 1017.43 1017.49 1017.63 1017.74 1017.85 1017.99 1018.09 1018.07 1018.18 1018.33 1018.37 1018.54 1018.60 1018.50 1018.55 1018.75 1018.88 1018.85 1018.94 1018.93 1018.98 1019.20 1019.39 1019.35 1019.71 1020.00 1020.14 1020.30 1020.21 1020.06 1020.11 1020.33 1020.53 1020.62 1020.78 1020.95
1016.22 1016.52 1016.58 1016.94 1017.16 1017.26 1017.45 1017.44 1017.62 1017.60 1017.78 1017.91 1018.10 1018.21 1018.32 1018.47 1018.44 1018.48 1018.67 1018.63 1018.58 1018.49 1018.67 1018.92 1018.91 1018.99 1019.08 1019.13 1019.14 1019.34 1019.75 1020.13 1020.16 1020.22 1020.38 1020.39 1020.21 1020.24 1020.48 1020.66 1020.80 1020.94 1021.08
1016.14 1016.54 1016.67 1017.00 1017.19 1017.33 1017.28 1017.52 1017.77 1017.70 1017.93 1018.12 1018.33 1018.54 1018.67 1018.62 1018.67 1018.65 1018.77 1018.69 1018.71 1018.63 1018.61 1018.76 1018.83 1019.08 1019.10 1019.25 1019.29 1019.28 1019.81 1020.12 1020.19 1020.37 1020.55 1020.62 1020.54 1020.48 1020.73 1020.90 1021.00 1021.17 1021.33
1015.72 1016.26 1016.60 1016.85 1017.08 1017.23 1017.20 1017.51 1017.86 1017.86 1017.98 1018.15 1018.47 1018.60 1018.78 1018.59 1018.64 1018.75 1018.97 1018.89 1018.91 1018.97 1019.09 1018.87 1018.82 1018.92 1019.07 1019.22 1019.27 1019.24 1019.64 1019.90 1020.20 1020.41 1020.53 1020.62 1020.73 1020.72 1020.86 1021.06 1021.23 1021.29 1021.43
1015.64 1015.90 1016.33 1016.59 1016.81 1017.17 1017.18 1017.36 1017.64 1017.88 1017.90 1018.11 1018.49 1018.63 1018.83 1018.69 1018.72 1018.91 1018.96 1018.93 1018.96 1019.35 1019.36 1019.17 1019.13 1018.92 1018.97 1018.94 1018.79 1019.17 1019.57 1019.79 1020.00 1020.38 1020.55 1020.71 1020.90 1020.93 1021.01 1021.16 1021.38 1021.62 1021.83
1015.36 1015.63 1015.98 1016.34 1016.65 1016.94 1017.08 1017.17 1017.42 1017.69 1017.84 1017.91 1018.34 1018.49 1018.59 1018.61 1018.76 1018.85 1018.83 1018.87 1019.02 1019.22 1019.45 1019.58 1019.07 1019.25 1019.37 1019.32 1019.10 1019.11 1019.44 1019.70 1020.19 1020.50 1020.73 1020.81 1020.90 1020.89 1021.09 1021.44 1021.68 1021.71 1021.77
1014.93 1015.29 1015.65 1016.15 1016.29 1016.59 1016.76 1016.98 1017.19 1017.42 1017.59 1017.75 1018.08 1018.24 1018.34 1018.44 1018.60 1018.82 1018.80 1019.04 1019.03 1019.19 1019.48 1019.66 1019.36 1019.51 1019.53 1019.59 1019.52 1019.38 1019.63 1019.92 1020.34 1020.55 1020.82 1020.85 1020.79 1020.94 1021.14 1021.35 1021.52 1021.75 1021.96
1014.38 1014.85 1015.33 1015.80 1016.01 1016.41 1016.53 1016.81 1016.98 1017.04 1017.10 1017.41 1017.69 1018.03 1018.18 1018.22 1018.25 1018.57 1018.76 1019.05 1019.09 1019.22 1019.58 1019.82 1019.67 1019.38 1019.11 1019.10 1019.97 1019.72 1019.78 1020.03 1020.26 1020.50 1020.80 1020.80 1020.90 1021.02 1021.25 1021.15 1021.45 1021.69 1021.84
1013.84 1014.41 1014.93 1015.45 1015.94 1016.13 1016.25 1016.43 1016.63 1016.73 1016.66 1016.90 1017.22 1017.67 1017.79 1018.05 1017.97 1018.37 1018.79 1019.00 1019.13 1019.46 1019.57 1019.74 1019.67 1019.46 1019.60 1019.63 1019.74 1020.09 1019.98 1020.14 1020.47 1020.60 1020.85 1020.98 1021.10 1021.28 1021.37 1021.41 1021.64 1021.75 1021.94
1013.22 1013.80 1014.46 1015.05 1015.61 1015.88 1016.04 1016.06 1016.28 1016.49 1016.73 1016.84 1017.01 1017.40 1017.52 1017.67 1017.84 1018.15 1018.57 1018.89 1019.15 1019.32 1019.39 1019.39 1019.64 1019.77 1019.91 1019.88 1020.00 1020.29 1020.10 1020.52 1020.57 1020.54 1021.05 1020.99 1021.19 1021.29 1021.48 1021.53 1021.69 1021.90 1022.02
1012.65 1013.27 1013.94 1014.55 1015.20 1015.56 1015.87 1015.97 1016.09 1016.34 1016.62 1016.65 1016.73 1017.20 1017.42 1017.48 1017.71 1018.09 1018.51 1018.79 1019.07 1019.27 1019.40 1019.38 1019.53 1019.76 1019.82 1019.95 1020.11 1020.30 1020.56 1020.37 1020.56 1020.88 1020.91 1021.01 1021.35 1021.40 1021.54 1021.68 1021.78 1021.93 1022.00
1012.17 1012.70 1013.32 1013.98 1014.69 1015.22 1015.71 1016.09 1016.37 1016.63 1016.50 1016.82 1016.80 1017.01 1017.43 1017.37 1017.61 1018.07 1018.45 1018.79 1019.09 1019.28 1019.39 1019.50 1019.82 1019.97 1020.24 1020.30 1020.76 1021.08 1021.08 1021.10 1020.87 1021.07 1021.01 1021.28 1021.41 1021.56 1021.66 1021.83 1021.93 1021.94 1022.01
1011.42 1012.03 1012.74 1013.33 1014.08 1014.61 1015.06 1015.38 1015.82 1016.15 1016.35 1016.43 1016.78 1016.89 1017.14 1017.45 1017.48 1017.95 1018.29 1018.80 1018.89 1019.29 1019.51 1019.78 1019.89 1020.24 1020.39 1020.38 1020.97 1021.34 1021.68 1021.48 1021.34 1021.30 1021.26 1021.52 1021.60 1021.59 1021.83 1021.93 1021.96 1022.09 1022.01
1010.45 1011.16 1011.95 1012.57 1013.34 1013.96 1014.58 1015.22 1015.73 1016.12 1016.35 1016.56 1016.81 1016.95 1016.99 1017.35 1017.42 1017.76 1018.07 1018.45 1018.87 1019.18 1019.49 1019.69 1019.78 1020.09 1020.60 1020.60 1020.57 1021.17 1022.07 1022.25 1022.06 1021.87 1021.82 1021.86 1021.77 1021.85 1021.85 1021.88 1021.92 1021.97 1022.01
1009.42 1010.41 1011.22 1011.99 1012.80 1013.51 1014.07 1014.78 1015.26 1015.67 1016.07 1016.19 1016.38 1016.69 1016.89 1017.06 1017.39 1017.56 1017.77 1018.12 1018.52 1018.99 1019.31 1019.42 1019.52 1019.83 1020.34 1020.80 1020.87 1020.88 1021.13 1021.54 1022.26 1022.71 1022.34 1022.07 1022.03 1022.04 1021.94 1022.00 1021.84 1021.86 1021.95
1008.85 1009.86 1010.59 1011.37 1012.10 1012.81 1013.52 1013.97 1014.55 1015.25 1015.47 1015.89 1016.13 1016.49 1016.82 1016.97 1017.09 1017.26 1017.52 1017.83 1018.28 1018.69 1018.99 1019.23 1019.44 1019.77 1020.18 1020.64 1020.90 1021.20 1021.35 1021.61 1021.78 1022.40 1022.72 1022.52 1022.41 1022.14 1021.90 1021.69 1021.64 1021.74 1021.82
1007.68 1008.82 1009.96 1010.83 1011.47 1012.07 1012.79 1013.35 1013.81 1014.55 1015.22 1015.74 1016.02 1016.32 1016.65 1016.85 1017.02 1016.99 1017.16 1017.49 1017.92 1018.28 1018.73 1018.99 1019.35 1019.64 1019.97 1020.19 1020.45 1020.81 1021.09 1021.43 1021.74 1022.02 1022.41 1022.39 1022.32 1022.07 1021.76 1021.70 1021.67 1021.60 1021.64
Thickness
5762 5762 5761 5760 5759 5757 5757 5755 5754 5753 5753 5753 5753 5754 5754 5754 5754 5752 5751 5751 5752 5753 5753 5752 5752 5751 5750 5749 5749 5748 5747 5745 5743 5741 5740 5741 5743 5744 5745 5746 5746 5746 5745
5768 5763 5761 5761 5760 5758 5757 5756 5754 5753 5752 5752 5753 5753 5753 5753 5752 5752 5752 5752 5752 5752 5751 5751 5751 5751 5750 5749 5747 5746 5745 5743 5742 5741 5740 5740 5741 5742 5743 5744 5745 5744 5744
5768 5765 5763 5762 5760 5758 5758 5756 5755 5753 5753 5753 5754 5754 5753 5753 5753 5753 5752 5752 5751 5750 5750 5750 5750 5748 5747 5745 5744 5744 5743 5742 5740 5739 5738 5739 5739 5740 5741 5742 5742 5743 5743
5769 5766 5763 5762 5761 5759 5758 5756 5755 5753 5753 5754 5753 5753 5753 5753 5753 5753 5751 5750 5748 5748 5749 5749 5748 5745 5743 5742 5741 5741 5742 5742 5740 5739 5738 5739 5740 5740 5741 5741 5741 5741 5741
5768 5765 5764 5762 5761 5759 5758 5757 5755 5753 5752 5753 5754 5754 5754 5754 5754 5753 5752 5750 5749 5749 5748 5748 5746 5744 5740 5740 5738 5739 5741 5742 5742 5740 5739 5740 5739 5739 5740 5740 5740 5740 5738
5769 5764 5763 5762 5761 5760 5757 5756 5755 5752 5752 5752 5753 5754 5754 5754 5754 5754 5754 5753 5754 5752 5750 5748 5747 5744 5739 5737 5736 5738 5741 5741 5741 5740 5739 5739 5740 5739 5739 5739 5739 5737 5736
5767 5765 5764 5762 5761 5759 5757 5755 5755 5753 5752 5751 5752 5754 5756 5757 5756 5756 5756 5755 5755 5754 5752 5750 5748 5744 5738 5735 5735 5736 5739 5740 5739 5738 5738 5739 5740 5740 5739 5738 5737 5736 5734
5767 5764 5764 5762 5759 5758 5756 5755 5755 5754 5753 5752 5754 5756 5758 5759 5758 5757 5755 5754 5755 5754 5752 5750 5750 5747 5741 5737 5738 5740 5742 5742 5740 5739 5739 5739 5739 5740 5739 5738 5736 5734 5733
5765 5763 5763 5761 5759 5757 5756 5755 5756 5755 5754 5755 5757 5758 5760 5761 5760 5758 5757 5756 5756 5755 5752 5751 5751 5749 5746 5742 5743 5742 5743 5744 5742 5740 5739 5739 5739 5739 5738 5737 5735 5734 5733
5765 5762 5762 5761 5759 5758 5757 5757 5758 5756 5756 5758 5759 5760 5761 5762 5763 5762 5760 5758 5758 5757 5754 5751 5751 5749 5750 5748 5744 5743 5743 5740 5738 5737 5737 5738 5739 5739 5738 5737 5736 5734 5733
5764 5762 5762 5760 5759 5760 5759 5759 5759 5760 5759 5760 5760 5761 5764 5763 5764 5765 5762 5759 5760 5760 5756 5753 5752 5751 5750 5749 5747 5745 5741 5740 5738 5739 5736 5735 5737 5738 5738 5736 5735 5733 5732
5762 5762 5763 5760 5760 5762 5762 5761 5761 5762 5763 5764 5763 5763 5765 5765 5764 5765 5763 5761 5759 5760 5758 5757 5756 5753 5753 5753 5751 5747 5743 5741 5742 5739 5734 5733 5735 5738 5737 5735 5732 5728 5728
5769 5766 5764 5762 5763 5764 5766 5765 5764 5765 5767 5767 5766 5766 5766 5768 5767 5767 5763 5763 5761 5759 5758 5760 5759 5758 5756 5755 5754 5753 5748 5745 5744 5740 5738 5737 5738 5739 5738 5735 5733 5731 5731
5769 5769 5768 5766 5766 5767 5769 5769 5769 5768 5770 5770 5769 5769 5768 5769 5769 5768 5766 5765 5764 5758 5757 5759 5758 5759 5758 5758 5758 5757 5751 5749 5748 5745 5742 5740 5738 5739 5739 5737 5734 5732 5729
5771 5772 5772 5770 5770 5770 5772 5774 5773 5773 5773 5774 5772 5772 5772 5772 5770 5768 5768 5766 5764 5760 5758 5758 5760 5758 5757 5757 5758 5757 5755 5753 5750 5746 5743 5741 5741 5742 5740 5735 5731 5731 5731
5776 5775 5776 5773 5773 5774 5776 5777 5778 5778 5777 5777 5776 5778 5776 5775 5773 5769 5769 5767 5765 5762 5759 5757 5760 5758 5758 5758 5756 5756 5755 5754 5750 5749 5745 5742 5744 5743 5740 5738 5736 5734 5732
5780 5780 5778 5777 5777 5777 5780 5780 5780 5783 5782 5782 5783 5781 5779 5778 5777 5773 5772 5769 5766 5764 5759 5756 5758 5760 5761 5763 5757 5757 5757 5756 5754 5752 5748 5747 5745 5744 5741 5742 5739 5736 5734
5785 5782 5782 5782 5779 5780 5783 5783 5784 5786 5786 5788 5788 5784 5782 5781 5781 5777 5773 5770 5766 5763 5761 5757 5758 5760 5759 5759 5758 5755 5757 5756 5753 5752 5749 5747 5746 5744 5742 5742 5739 5737 5735
5790 5788 5784 5784 5783 5783 5785 5787 5788 5790 5790 5791 5790 5788 5787 5785 5784 5781 5776 5772 5768 5765 5764 5762 5760 5758 5756 5758 5756 5755 5757 5754 5752 5753 5749 5749 5747 5745 5743 5741 5739 5737 5735
5793 5791 5790 5788 5786 5787 5787 5790 5791 5793 5793 5794 5792 5790 5789 5788 5785 5782 5778 5774 5770 5769 5766 5766 5762 5761 5760 5757 5757 5757 5754 5755 5753 5752 5751 5750 5747 5746 5744 5743 5742 5739 5737
5795 5795 5794 5792 5791 5789 5788 5787 5788 5789 5793 5793 5794 5792 5790 5790 5787 5784 5780 5777 5774 5771 5771 5770 5765 5762 5758 5759 5754 5750 5752 5753 5754 5752 5751 5749 5748 5747 5745 5744 5744 5741 5738
5797 5798 5797 5796 5794 5793 5793 5795 5794 5793 5794 5795 5794 5794 5793 5791 5790 5787 5784 5780 5777 5774 5771 5769 5767 5763 5761 5761 5753 5748 5739 5747 5752 5753 5753 5752 5749 5748 5746 5745 5743 5740 5740
5804 5802 5801 5802 5798 5798 5798 5796 5795 5795 5795 5793 5793 5794 5794 5791 5791 5788 5786 5783 5778 5775 5773 5772 5772 5768 5760 5762 5763 5752 5738 5734 5740 5750 5751 5750 5751 5749 5748 5746 5745 5744 5742
5810 5811 5807 5805 5802 5802 5802 5797 5796 5795 5792 5796 5796 5796 5796 5794 5792 5791 5790 5787 5783 5779 5777 5777 5776 5772 5766 5759 5760 5762 5759 5752 5738 5736 5744 5747 5749 5748 5749 5747 5747 5746 5744
5814 5811 5811 5808 5806 5806 5805 5804 5801 5798 5801 5799 5799 5797 5797 5796 5795 5794 5793 5791 5786 5783 5782 5780 5778 5774 5770 5764 5761 5758 5757 5754 5752 5741 5733 5739 5745 5748 5750 5750 5751 5750 5748
5823 5816 5813 5811 5811 5811 5810 5809 5807 5803 5800 5799 5800 5799 5798 5799 5798 5798 5797 5794 5791 5788 5786 5783 5781 5778 5774 5772 5768 5764 5759 5754 5750 5746 5739 5740 5742 5747 5750 5752 5752 5752 5749